Regional Weather Roundup
Issued by NWS

Home | Current Version | Previous Version | Text Only | Print | Product List | Glossary On
Versions: 1 2 3 4 5 6 7 8 9 10 11 12 13 14 15 16 17 18 19 20 21 22 23 24 25 26 27 28 29 30 31 32 33 34 35 36 37 38 39 40 41 42 43 44 45 46 47 48 49 50
000
ASUS43 KTOP 300059
RWRKS

WEATHER ROUNDUP FOR KANSAS
NATIONAL WEATHER SERVICE GOODLAND KS
800 PM CDT MON MAY 29 2017

NOTE:  "FAIR" INDICATES FEW OR NO CLOUDS BELOW 12,000 FEET WITH NO
SIGNIFICANT WEATHER AND/OR OBSTRUCTIONS TO VISIBILITY.

KSZ001>006-013>018-027>032-041>047-300200-
NORTHWEST KANSAS

CITY           SKY/WX    TMP DP  RH WIND       PRES   REMARKS
GOODLAND       MOSUNNY   69  47  45 CALM      30.11S
HAYS           CLEAR     73  50  44 NE5       30.05S
HILL CITY      CLEAR     77  42  28 CALM      30.06S
RUSSELL        CLEAR     74  46  36 N5        30.03S
$$

KSZ061>065-074>080-084>089-300200-
SOUTHWEST KANSAS

CITY           SKY/WX    TMP DP  RH WIND       PRES   REMARKS
DODGE CITY     CLEAR     76  42  29 NE7       30.07S
ELKHART          N/A     62  41  46 MISG        N/A
GARDEN CITY    CLEAR     75  41  29 NE8       30.07R
GREAT BEND     CLEAR     72  52  49 N7        30.05S
LIBERAL        PTCLDY    75  49  39 SE6       30.07R
$$

KSZ066>073-081>083-090>101-300200-
SOUTHEAST KANSAS

CITY           SKY/WX    TMP DP  RH WIND       PRES   REMARKS
CHANUTE        CLEAR     79  49  34 MISG      29.98S
COFFEYVILLE    CLEAR     80  57  45 N7        29.97S
HUTCHINSON     CLEAR     76  49  38 N6        30.02S
MEDICINE LODGE   N/A     79  48  33 N9        30.01R
NEWTON         CLEAR     75  50  41 N9        30.03R
PARSONS        CLEAR     78  54  43 N3        29.98F
WICHITA INTL   CLEAR     80  49  33 N13       30.00R
WICHITA JABRA  CLEAR     76  52  43 N9        30.00S
WINFIELD       CLEAR     79  50  36 NW7       30.00R
$$

KSZ007>012-019>026-033>040-048>060-102>105-300200-
NORTHEAST KANSAS

CITY           SKY/WX    TMP DP  RH WIND       PRES   REMARKS
CONCORDIA      CLEAR     72  43  35 N5        30.01S
EMPORIA        CLEAR     76  51  41 NW7       29.99S
LAWRENCE       CLEAR     74  51  44 NW8       29.98S
MANHATTAN      CLEAR     74  57  55 CALM      29.99S
OLATHE IND     CLEAR     74  51  44 NW6       29.99S
OLATHE EXE     CLEAR     75  48  38 NW6       29.98F
SALINA         CLEAR     77  52  41 N6        30.01S
TOPEKA BILLARD CLEAR     77  49  37 NW5       29.98S
TOPEKA FORBES  PTCLDY    75  51  43 NW5       29.99S
$$




USA.gov is the U.S. government's official web portal to all federal, state and local government web resources and services.